TimePDT,TemperatureF,Dew PointF,Humidity,Sea Level PressureIn,VisibilityMPH,Wind Direction,Wind SpeedMPH,Gust SpeedMPH,PrecipitationIn,Events,Conditions,WindDirDegrees,DateUTC
12:53 AM,50.0,48.9,96,30.04,10.0,Calm,Calm,-,N/A,,Clear,0,2012-11-02 07:53:00
1:50 AM,50.0,48.2,94,30.04,9.0,Calm,Calm,-,N/A,,Mostly Cloudy,0,2012-11-02 08:50:00
1:53 AM,50.0,48.9,96,30.04,10.0,Calm,Calm,-,N/A,,Mostly Cloudy,0,2012-11-02 08:53:00
2:37 AM,50.0,48.2,94,30.05,9.0,Calm,Calm,-,N/A,,Scattered Clouds,0,2012-11-02 09:37:00
2:53 AM,48.9,48.0,97,30.05,1.5,Calm,Calm,-,N/A,,Clear,0,2012-11-02 09:53:00
3:01 AM,48.2,48.2,100,30.05,0.5,Calm,Calm,-,N/A,Fog,Fog,0,2012-11-02 10:01:00
3:09 AM,48.2,48.2,100,30.05,2.0,Calm,Calm,-,N/A,,Clear,0,2012-11-02 10:09:00
3:32 AM,48.2,48.2,100,30.05,6.0,Calm,Calm,-,N/A,,Scattered Clouds,0,2012-11-02 10:32:00
3:45 AM,48.2,48.2,100,30.04,2.5,Calm,Calm,-,N/A,,Scattered Clouds,0,2012-11-02 10:45:00
3:53 AM,48.9,48.0,97,30.04,5.0,Calm,Calm,-,N/A,,Partly Cloudy,0,2012-11-02 10:53:00
4:53 AM,48.9,48.0,97,30.03,10.0,SE,3.5,-,N/A,,Clear,140,2012-11-02 11:53:00
5:53 AM,48.9,48.0,97,30.03,10.0,Calm,Calm,-,N/A,,Scattered Clouds,0,2012-11-02 12:53:00
6:53 AM,48.0,46.9,96,30.01,6.0,Calm,Calm,-,N/A,,Partly Cloudy,0,2012-11-02 13:53:00
7:53 AM,48.0,48.0,100,30.02,6.0,WNW,3.5,-,N/A,,Mostly Cloudy,290,2012-11-02 14:53:00
8:07 AM,48.2,48.2,100,30.02,5.0,Calm,Calm,-,N/A,,Mostly Cloudy,0,2012-11-02 15:07:00
8:53 AM,50.0,48.0,93,30.03,10.0,ENE,3.5,-,N/A,,Mostly Cloudy,70,2012-11-02 15:53:00
9:39 AM,51.8,50.0,94,30.03,10.0,Calm,Calm,-,N/A,,Mostly Cloudy,0,2012-11-02 16:39:00
9:53 AM,52.0,50.0,93,30.03,10.0,Calm,Calm,-,N/A,,Mostly Cloudy,0,2012-11-02 16:53:00
10:53 AM,53.1,50.0,89,30.03,10.0,Calm,Calm,-,N/A,,Mostly Cloudy,0,2012-11-02 17:53:00
11:53 AM,55.0,48.9,80,30.03,10.0,SSE,3.5,-,N/A,,Overcast,150,2012-11-02 18:53:00
12:53 PM,57.0,48.9,74,30.01,10.0,Calm,Calm,-,N/A,,Overcast,0,2012-11-02 19:53:00
1:53 PM,57.0,50.0,77,30.01,10.0,SW,4.6,-,0.00,Rain,Light Rain,230,2012-11-02 20:53:00
2:53 PM,55.0,52.0,89,30.00,7.0,Calm,Calm,-,0.03,Rain,Light Rain,0,2012-11-02 21:53:00
2:55 PM,55.4,51.8,88,30.00,6.0,Calm,Calm,-,0.01,Rain,Rain,0,2012-11-02 21:55:00
3:53 PM,55.9,52.0,87,30.00,10.0,SE,3.5,-,0.03,Rain,Light Rain,140,2012-11-02 22:53:00
4:53 PM,55.0,52.0,89,29.97,10.0,East,4.6,-,0.01,Rain,Light Rain,100,2012-11-02 23:53:00
5:53 PM,55.0,52.0,89,29.99,10.0,SW,4.6,-,0.00,,Overcast,230,2012-11-03 00:53:00
6:06 PM,53.6,51.8,94,30.00,8.0,WSW,3.5,-,N/A,,Overcast,240,2012-11-03 01:06:00
6:53 PM,53.1,51.1,93,30.01,10.0,SW,4.6,-,0.00,,Overcast,230,2012-11-03 01:53:00
7:53 PM,53.1,51.1,93,30.01,3.0,SE,3.5,-,0.03,Rain,Rain,140,2012-11-03 02:53:00
8:53 PM,53.1,51.1,93,29.99,5.0,Calm,Calm,-,0.01,Rain,Light Rain,0,2012-11-03 03:53:00
9:53 PM,53.1,51.1,93,30.01,3.0,Calm,Calm,-,0.02,Rain,Rain,0,2012-11-03 04:53:00
10:53 PM,53.1,51.1,93,30.00,10.0,Calm,Calm,-,0.01,,Overcast,0,2012-11-03 05:53:00
11:53 PM,52.0,51.1,97,30.00,6.0,WNW,3.5,-,0.00,Rain,Light Rain,300,2012-11-03 06:53:00